Frontier — WBB3569 — position and weather

sailwx.info

Track history (hours):
 
Tides and Currents Weather Stations Pressure Air Temp Water Temp Dewpoint Dewpoint Depression Visibility Wind Speed Wind Dir Waves Ship Positions

Frontier

Owner: NORDIC FISHERIES INC, NEW BEDFORD, MA. More information available from US FCC via Universal Licensing System and Coast Guard Vessel Documentation Center.

Last reported at 2015-Jul-04 06:33 UTC. Time now 2015-Jul-05 23:13 UTC.
Position N 39°59' W 072°31'.

Length 28 m.

Type: Fishing. MMSI: 367131750.

Date/timePositionNaut miles runAvg speedWind from/ knotsBaromVisibWave heightAir tempDewpointWater temp
2015-Jul-04 06:33N 39°59' W 072°31'1 1.5
2015-Jul-04 05:33N 39°58' W 072°33'1 1.1
2015-Jul-04 04:33N 39°58' W 072°34'0 0.4
2015-Jul-04 03:33N 39°59' W 072°34'2 1.5
2015-Jul-04 02:33N 39°58' W 072°32'1 0.8
2015-Jul-04 01:33N 39°59' W 072°31'0 0.5
2015-Jul-04 00:33N 39°59' W 072°31'1 0.9
2015-Jul-03 23:33N 39°59' W 072°32'2 1.6
2015-Jul-03 22:33N 39°59' W 072°34'1 1.4
2015-Jul-03 21:33N 39°59' W 072°32'1 1.0
2015-Jul-03 20:34N 39°59' W 072°31'1 1.4
2015-Jul-03 19:31N 39°59' W 072°29'3 2.5
2015-Jul-03 18:10N 39°59' W 072°33'0 0.4
2015-Jul-03 17:25N 39°59' W 072°33'1 1.0
2015-Jul-03 16:33N 39°58' W 072°32'2 0.9
2015-Jul-03 14:28N 39°59' W 072°34'1 0.3
2015-Jul-03 12:17N 39°59' W 072°33'1 1.3
2015-Jul-03 11:33N 39°59' W 072°34'1 1.0
2015-Jul-03 10:33N 39°58' W 072°35'1 0.6
2015-Jul-03 09:31N 39°58' W 072°36'0 0.3
2015-Jul-03 08:24N 39°58' W 072°36'3 2.7
2015-Jul-03 07:28N 39°59' W 072°33'2 0.1
2015-Jul-02 18:33N 39°57' W 072°33'7 0.5
2015-Jul-02 04:07N 40°03' W 072°29'1 1.8
2015-Jul-02 03:33N 40°03' W 072°28'3 2.6
2015-Jul-02 02:33N 40°03' W 072°24'2 2.3
2015-Jul-02 01:33N 40°03' W 072°27'4 3.7
2015-Jul-02 00:33N 40°06' W 072°24'1 0.6
2015-Jul-01 23:29N 40°06' W 072°25'2 0.5
2015-Jul-01 19:19N 40°05' W 072°22'4 4.7
2015-Jul-01 18:33N 40°05' W 072°27'1 1.2
2015-Jul-01 17:31N 40°05' W 072°28'5 4.5
2015-Jul-01 16:24N 40°04' W 072°35'3 0.7
2015-Jul-01 12:34N 40°06' W 072°33'11 2.6
2015-Jul-01 08:22N 40°13' W 072°22'4 4.6
2015-Jul-01 07:33N 40°14' W 072°18'1 1.2
2015-Jul-01 06:33N 40°15' W 072°16'1 0.8
2015-Jul-01 05:14N 40°14' W 072°16'1 1.2
2015-Jul-01 04:31N 40°15' W 072°17'4 1.7
2015-Jul-01 02:26N 40°17' W 072°13'4 4.9
2015-Jul-01 01:33N 40°21' W 072°11'5 5.0
2015-Jul-01 00:33N 40°26' W 072°09'6 5.5
2015-Jun-30 23:31N 40°32' W 072°07'6 5.9
2015-Jun-30 22:33N 40°37' W 072°06'4 4.4
2015-Jun-30 21:33N 40°42' W 072°05'7 7.3
2015-Jun-30 20:33N 40°49' W 072°02'9 9.2
2015-Jun-30 19:33N 40°57' W 071°57'9 8.7
2015-Jun-30 18:33N 41°03' W 071°49'9 9.0
2015-Jun-30 17:33N 41°07' W 071°38'9 9.4
2015-Jun-30 16:33N 41°12' W 071°27'11 9.1
2015-Jun-30 15:21N 41°18' W 071°15'7 9.0
2015-Jun-30 14:33N 41°22' W 071°07'  
Track history (hours):
 
Tides and Currents Weather Stations Pressure Air Temp Water Temp Dewpoint Dewpoint Depression Visibility Wind Speed Wind Dir Waves Ship Positions

Frontier

Owner: NORDIC FISHERIES INC, NEW BEDFORD, MA. More information available from US FCC via Universal Licensing System and Coast Guard Vessel Documentation Center.

Last reported at 2015-Jul-04 06:33 UTC. Time now 2015-Jul-05 23:13 UTC.
Position N 39°59' W 072°31'.

Length 28 m.

Type: Fishing. MMSI: 367131750.

Date/timePositionNaut miles runAvg speedWind from/ knotsBaromVisibWave heightAir tempDewpointWater temp
2015-Jul-04 06:33N 39°59' W 072°31'1 1.5
2015-Jul-04 05:33N 39°58' W 072°33'1 1.1
2015-Jul-04 04:33N 39°58' W 072°34'0 0.4
2015-Jul-04 03:33N 39°59' W 072°34'2 1.5
2015-Jul-04 02:33N 39°58' W 072°32'1 0.8
2015-Jul-04 01:33N 39°59' W 072°31'0 0.5
2015-Jul-04 00:33N 39°59' W 072°31'1 0.9
2015-Jul-03 23:33N 39°59' W 072°32'2 1.6
2015-Jul-03 22:33N 39°59' W 072°34'1 1.4
2015-Jul-03 21:33N 39°59' W 072°32'1 1.0
2015-Jul-03 20:34N 39°59' W 072°31'1 1.4
2015-Jul-03 19:31N 39°59' W 072°29'3 2.5
2015-Jul-03 18:10N 39°59' W 072°33'0 0.4
2015-Jul-03 17:25N 39°59' W 072°33'1 1.0
2015-Jul-03 16:33N 39°58' W 072°32'2 0.9
2015-Jul-03 14:28N 39°59' W 072°34'1 0.3
2015-Jul-03 12:17N 39°59' W 072°33'1 1.3
2015-Jul-03 11:33N 39°59' W 072°34'1 1.0
2015-Jul-03 10:33N 39°58' W 072°35'1 0.6
2015-Jul-03 09:31N 39°58' W 072°36'0 0.3
2015-Jul-03 08:24N 39°58' W 072°36'3 2.7
2015-Jul-03 07:28N 39°59' W 072°33'2 0.1
2015-Jul-02 18:33N 39°57' W 072°33'7 0.5
2015-Jul-02 04:07N 40°03' W 072°29'1 1.8
2015-Jul-02 03:33N 40°03' W 072°28'3 2.6
2015-Jul-02 02:33N 40°03' W 072°24'2 2.3
2015-Jul-02 01:33N 40°03' W 072°27'4 3.7
2015-Jul-02 00:33N 40°06' W 072°24'1 0.6
2015-Jul-01 23:29N 40°06' W 072°25'2 0.5
2015-Jul-01 19:19N 40°05' W 072°22'4 4.7
2015-Jul-01 18:33N 40°05' W 072°27'1 1.2
2015-Jul-01 17:31N 40°05' W 072°28'5 4.5
2015-Jul-01 16:24N 40°04' W 072°35'3 0.7
2015-Jul-01 12:34N 40°06' W 072°33'11 2.6
2015-Jul-01 08:22N 40°13' W 072°22'4 4.6
2015-Jul-01 07:33N 40°14' W 072°18'1 1.2
2015-Jul-01 06:33N 40°15' W 072°16'1 0.8
2015-Jul-01 05:14N 40°14' W 072°16'1 1.2
2015-Jul-01 04:31N 40°15' W 072°17'4 1.7
2015-Jul-01 02:26N 40°17' W 072°13'4 4.9
2015-Jul-01 01:33N 40°21' W 072°11'5 5.0
2015-Jul-01 00:33N 40°26' W 072°09'6 5.5
2015-Jun-30 23:31N 40°32' W 072°07'6 5.9
2015-Jun-30 22:33N 40°37' W 072°06'4 4.4
2015-Jun-30 21:33N 40°42' W 072°05'7 7.3
2015-Jun-30 20:33N 40°49' W 072°02'9 9.2
2015-Jun-30 19:33N 40°57' W 071°57'9 8.7
2015-Jun-30 18:33N 41°03' W 071°49'9 9.0
2015-Jun-30 17:33N 41°07' W 071°38'9 9.4
2015-Jun-30 16:33N 41°12' W 071°27'11 9.1
2015-Jun-30 15:21N 41°18' W 071°15'7 9.0
2015-Jun-30 14:33N 41°22' W 071°07'  

Dump ship's entire track history